Location: Gro� Glienicke
(52.4675°N, 13.1079°E)
Time: 18:40:41
(UTC+00:00)

Cosmos 2333 - Pass Details

Date: 06 July 2020
Orbit: 828 x 867 km, 70.9° (Epoch: 11 August)

Event Time Altitude Azimuth Distance (km) Brightness Sun altitude
Rises 20:17:47 0° 195° (SSW) 3,376 7.0 -5.9°
Reaches altitude 10° 20:20:13 10° 192° (SSW) 2,451 6.3 -6.1°
Maximum altitude 20:25:44 59° 114° (ESE) 974 4.3 -6.6°
Drops below altitude 10° 20:31:21 10° 37° (NE) 2,493 6.9 -7.2°
Sets 20:33:51 0° 33° (NNE) 3,439 7.7 -7.4°
